Time,TemperatureF,DewpointF,PressureIn,WindDirection,WindDirectionDegrees,WindSpeedMPH,WindSpeedGustMPH,Humidity,HourlyPrecipIn,Conditions,Clouds,dailyrainin,SoftwareType,DateUTC
2013-02-20 00:02:00,18.0,11.0,-100.00,West,275,7.0,21.0,72,0.00,,,-99.99,,2013-02-20 05:02:00,
2013-02-20 00:12:00,18.0,11.0,-100.00,West,280,9.0,17.0,73,0.00,,,-99.99,,2013-02-20 05:12:00,
2013-02-20 00:22:00,18.0,11.0,-100.00,West,260,10.0,19.0,73,0.00,,,-99.99,,2013-02-20 05:22:00,
2013-02-20 00:32:00,17.0,11.0,-100.00,West,275,10.0,16.0,74,0.00,,,-99.99,,2013-02-20 05:32:00,
2013-02-20 00:43:00,17.0,10.0,-100.00,West,280,7.0,16.0,73,0.00,,,-99.99,,2013-02-20 05:43:00,
2013-02-20 00:52:00,17.0,9.0,-100.00,West,265,11.0,21.0,70,0.00,,,-99.99,,2013-02-20 05:52:00,
2013-02-20 01:02:00,17.0,9.0,-100.00,West,275,9.0,19.0,69,0.00,,,-99.99,,2013-02-20 06:02:00,
2013-02-20 01:11:00,17.0,9.0,-100.00,WSW,255,9.0,17.0,69,0.00,,,-99.99,,2013-02-20 06:11:00,
2013-02-20 01:21:00,17.0,9.0,-100.00,West,270,9.0,12.0,70,0.00,,,-99.99,,2013-02-20 06:21:00,
2013-02-20 01:32:00,17.0,9.0,-100.00,West,275,6.0,15.0,70,0.00,,,-99.99,,2013-02-20 06:32:00,
2013-02-20 01:42:00,17.0,9.0,-100.00,West,275,9.0,17.0,69,0.00,,,-99.99,,2013-02-20 06:42:00,
2013-02-20 01:51:00,17.0,9.0,-100.00,West,260,7.0,14.0,69,0.00,,,-99.99,,2013-02-20 06:51:00,
2013-02-20 02:02:00,17.0,9.0,-100.00,West,270,6.0,15.0,69,0.00,,,-99.99,,2013-02-20 07:02:00,
2013-02-20 02:11:00,17.0,9.0,-100.00,West,265,6.0,17.0,69,0.00,,,-99.99,,2013-02-20 07:11:00,
2013-02-20 02:21:00,18.0,9.0,-100.00,West,265,8.0,14.0,67,0.00,,,-99.99,,2013-02-20 07:21:00,
2013-02-20 02:32:00,18.0,10.0,-100.00,WSW,255,6.0,16.0,70,0.00,,,-99.99,,2013-02-20 07:32:00,
2013-02-20 02:42:00,18.0,9.0,-100.00,WSW,250,8.0,13.0,69,0.00,,,-99.99,,2013-02-20 07:42:00,
2013-02-20 02:52:00,18.0,10.0,-100.00,West,270,7.0,18.0,70,0.00,,,-99.99,,2013-02-20 07:52:00,
2013-02-20 03:05:00,18.0,9.0,-100.00,West,265,6.0,13.0,69,0.00,,,-99.99,,2013-02-20 08:05:00,
2013-02-20 03:11:00,18.0,10.0,-100.00,WSW,250,7.0,13.0,70,0.00,,,-99.99,,2013-02-20 08:11:00,
2013-02-20 03:21:00,18.0,10.0,-100.00,West,265,6.0,12.0,70,0.00,,,-99.99,,2013-02-20 08:21:00,
2013-02-20 03:31:00,17.0,9.0,-100.00,West,260,6.0,19.0,70,0.00,,,-99.99,,2013-02-20 08:31:00,
2013-02-20 03:41:00,17.0,9.0,-100.00,West,260,7.0,17.0,70,0.00,,,-99.99,,2013-02-20 08:41:00,
2013-02-20 03:52:00,17.0,9.0,-100.00,West,260,5.0,16.0,71,0.00,,,-99.99,,2013-02-20 08:52:00,
2013-02-20 04:02:00,17.0,9.0,-100.00,WSW,245,6.0,14.0,70,0.00,,,-99.99,,2013-02-20 09:02:00,
2013-02-20 04:11:00,17.0,9.0,-100.00,West,260,7.0,16.0,70,0.00,,,-99.99,,2013-02-20 09:11:00,
2013-02-20 04:21:00,17.0,9.0,-100.00,West,260,9.0,18.0,70,0.00,,,-99.99,,2013-02-20 09:21:00,
2013-02-20 04:32:00,17.0,9.0,-100.00,WSW,255,6.0,14.0,72,0.00,,,-99.99,,2013-02-20 09:32:00,
2013-02-20 04:42:00,17.0,10.0,-100.00,WSW,250,4.0,12.0,73,0.00,,,-99.99,,2013-02-20 09:42:00,
2013-02-20 04:51:00,17.0,10.0,-100.00,West,260,6.0,13.0,73,0.00,,,-99.99,,2013-02-20 09:51:00,
2013-02-20 05:01:00,17.0,10.0,-100.00,West,265,7.0,15.0,72,0.00,,,-99.99,,2013-02-20 10:01:00,
2013-02-20 05:12:00,17.0,9.0,-100.00,West,275,7.0,14.0,72,0.00,,,-99.99,,2013-02-20 10:12:00,
2013-02-20 05:22:00,17.0,9.0,-100.00,West,265,7.0,15.0,72,0.00,,,-99.99,,2013-02-20 10:22:00,
2013-02-20 05:32:00,17.0,9.0,-100.00,WSW,250,9.0,21.0,70,0.00,,,-99.99,,2013-02-20 10:32:00,
2013-02-20 05:42:00,17.0,9.0,-100.00,West,270,9.0,17.0,70,0.00,,,-99.99,,2013-02-20 10:42:00,
2013-02-20 05:51:00,17.0,9.0,-100.00,WNW,285,7.0,17.0,71,0.00,,,-99.99,,2013-02-20 10:51:00,
2013-02-20 06:02:00,17.0,9.0,-100.00,West,265,7.0,14.0,73,0.00,,,-99.99,,2013-02-20 11:02:00,
2013-02-20 06:11:00,17.0,10.0,-100.00,West,275,6.0,17.0,74,0.55,,,-99.99,,2013-02-20 11:11:00,
2013-02-20 06:21:00,16.0,10.0,-100.00,West,260,9.0,15.0,75,0.00,,,-99.99,,2013-02-20 11:21:00,
2013-02-20 06:32:00,16.0,9.0,-100.00,West,270,9.0,18.0,73,0.00,,,-99.99,,2013-02-20 11:32:00,
2013-02-20 06:42:00,16.0,8.0,-100.00,West,280,11.0,19.0,71,0.00,,,-99.99,,2013-02-20 11:42:00,
2013-02-20 06:52:00,16.0,8.0,-100.00,West,280,9.0,17.0,71,0.00,,,-99.99,,2013-02-20 11:52:00,
2013-02-20 07:02:00,16.0,8.0,-100.00,West,275,7.0,14.0,70,0.00,,,-99.99,,2013-02-20 12:02:00,
2013-02-20 07:12:00,16.0,8.0,-100.00,WSW,240,6.0,16.0,71,0.00,,,-99.99,,2013-02-20 12:12:00,
2013-02-20 07:21:00,16.0,8.0,-100.00,West,260,9.0,16.0,70,0.00,,,-99.99,,2013-02-20 12:21:00,
2013-02-20 07:32:00,15.0,8.0,-100.00,West,260,8.0,15.0,71,0.00,,,-99.99,,2013-02-20 12:32:00,
2013-02-20 07:42:00,15.0,8.0,-100.00,WSW,250,6.0,15.0,72,0.00,,,-99.99,,2013-02-20 12:42:00,
2013-02-20 07:52:00,15.0,8.0,-100.00,WSW,240,6.0,12.0,73,0.00,,,-99.99,,2013-02-20 12:52:00,
2013-02-20 08:01:00,15.0,8.0,-100.00,West,260,6.0,13.0,72,0.00,,,-99.99,,2013-02-20 13:01:00,
2013-02-20 08:11:00,15.0,8.0,-100.00,West,265,6.0,12.0,72,0.00,,,-99.99,,2013-02-20 13:11:00,
2013-02-20 08:22:00,16.0,8.0,-100.00,WSW,250,6.0,14.0,72,0.00,,,-99.99,,2013-02-20 13:22:00,
2013-02-20 08:32:00,16.0,8.0,-100.00,WSW,250,3.0,15.0,71,0.00,,,-99.99,,2013-02-20 13:32:00,
2013-02-20 08:42:00,16.0,8.0,-100.00,West,265,7.0,14.0,71,0.00,,,-99.99,,2013-02-20 13:42:00,
2013-02-20 08:51:00,16.0,8.0,-100.00,WSW,250,7.0,16.0,71,0.00,,,-99.99,,2013-02-20 13:51:00,
2013-02-20 09:01:00,16.0,8.0,-100.00,WSW,255,7.0,14.0,72,0.00,,,-99.99,,2013-02-20 14:01:00,
2013-02-20 09:11:00,16.0,8.0,-100.00,West,265,6.0,16.0,72,0.00,,,-99.99,,2013-02-20 14:11:00,
2013-02-20 09:21:00,16.0,9.0,-100.00,West,260,8.0,14.0,72,0.00,,,-99.99,,2013-02-20 14:21:00,
2013-02-20 09:32:00,16.0,9.0,-100.00,WSW,250,7.0,15.0,73,0.00,,,-99.99,,2013-02-20 14:32:00,
2013-02-20 09:42:00,16.0,9.0,-100.00,WSW,240,9.0,14.0,72,0.00,,,-99.99,,2013-02-20 14:42:00,
2013-02-20 09:52:00,17.0,9.0,-100.00,West,260,6.0,16.0,72,0.00,,,-99.99,,2013-02-20 14:52:00,
2013-02-20 10:02:00,17.0,9.0,-100.00,West,265,6.0,14.0,71,0.00,,,-99.99,,2013-02-20 15:02:00,
2013-02-20 10:11:00,17.0,10.0,-100.00,WSW,240,6.0,16.0,72,0.00,,,-99.99,,2013-02-20 15:11:00,
2013-02-20 10:22:00,17.0,9.0,-100.00,SW,235,9.0,16.0,72,0.00,,,-99.99,,2013-02-20 15:22:00,
2013-02-20 10:32:00,18.0,10.0,-100.00,WSW,255,6.0,15.0,71,0.00,,,-99.99,,2013-02-20 15:32:00,
2013-02-20 10:42:00,18.0,9.0,-100.00,WSW,250,9.0,15.0,69,0.00,,,-99.99,,2013-02-20 15:42:00,
2013-02-20 10:52:00,19.0,10.0,-100.00,West,270,8.0,14.0,69,0.00,,,-99.99,,2013-02-20 15:52:00,
2013-02-20 11:01:00,19.0,10.0,-100.00,WSW,255,7.0,15.0,68,0.00,,,-99.99,,2013-02-20 16:01:00,
2013-02-20 11:12:00,19.0,11.0,-100.00,WSW,245,7.0,13.0,69,0.00,,,-99.99,,2013-02-20 16:12:00,
2013-02-20 11:21:00,20.0,12.0,-100.00,WSW,255,7.0,15.0,71,0.00,,,-99.99,,2013-02-20 16:21:00,
2013-02-20 11:32:00,20.0,11.0,-100.00,WSW,250,8.0,17.0,67,0.00,,,-99.99,,2013-02-20 16:32:00,
2013-02-20 11:42:00,21.0,12.0,-100.00,West,260,8.0,14.0,66,0.00,,,-99.99,,2013-02-20 16:42:00,
2013-02-20 11:52:00,20.0,11.0,-100.00,WSW,255,7.0,14.0,66,0.00,,,-99.99,,2013-02-20 16:52:00,
2013-02-20 12:01:00,22.0,12.0,-100.00,West,275,7.0,15.0,65,0.00,,,-99.99,,2013-02-20 17:01:00,
2013-02-20 12:11:00,22.0,13.0,-100.00,West,270,4.0,16.0,66,0.00,,,-99.99,,2013-02-20 17:11:00,
2013-02-20 12:21:00,22.0,12.0,-100.00,West,260,8.0,20.0,66,0.00,,,-99.99,,2013-02-20 17:21:00,
2013-02-20 12:32:00,22.0,12.0,-100.00,West,260,8.0,21.0,65,0.00,,,-99.99,,2013-02-20 17:32:00,
2013-02-20 12:42:00,22.0,13.0,-100.00,West,270,7.0,14.0,66,0.00,,,-99.99,,2013-02-20 17:42:00,
2013-02-20 12:52:00,21.0,11.0,-100.00,West,275,9.0,16.0,64,0.00,,,-99.99,,2013-02-20 17:52:00,
2013-02-20 13:02:00,22.0,12.0,-100.00,West,260,6.0,16.0,65,0.00,,,-99.99,,2013-02-20 18:02:00,
2013-02-20 13:11:00,23.0,14.0,-100.00,West,260,6.0,14.0,67,0.00,,,-99.99,,2013-02-20 18:11:00,
2013-02-20 13:21:00,22.0,12.0,-100.00,WSW,255,8.0,13.0,65,0.00,,,-99.99,,2013-02-20 18:21:00,
2013-02-20 13:32:00,22.0,12.0,-100.00,West,265,9.0,13.0,64,0.00,,,-99.99,,2013-02-20 18:32:00,
2013-02-20 13:42:00,22.0,12.0,-100.00,WSW,255,6.0,14.0,62,0.00,,,-99.99,,2013-02-20 18:42:00,
2013-02-20 13:52:00,22.0,12.0,-100.00,West,280,9.0,16.0,65,0.00,,,-99.99,,2013-02-20 18:52:00,
2013-02-20 14:01:00,22.0,12.0,-100.00,West,280,7.0,16.0,65,0.00,,,-99.99,,2013-02-20 19:01:00,
2013-02-20 14:11:00,22.0,13.0,-100.00,West,275,5.0,17.0,67,0.00,,,-99.99,,2013-02-20 19:11:00,
2013-02-20 14:21:00,22.0,12.0,-100.00,WSW,245,9.0,16.0,66,0.00,,,-99.99,,2013-02-20 19:21:00,
2013-02-20 14:31:00,22.0,12.0,-100.00,West,275,7.0,17.0,65,0.00,,,-99.99,,2013-02-20 19:31:00,
2013-02-20 14:41:00,22.0,12.0,-100.00,West,260,9.0,14.0,65,0.00,,,-99.99,,2013-02-20 19:41:00,
2013-02-20 14:52:00,22.0,12.0,-100.00,West,260,7.0,15.0,64,0.00,,,-99.99,,2013-02-20 19:52:00,
2013-02-20 15:01:00,22.0,13.0,-100.00,West,280,7.0,16.0,66,0.00,,,-99.99,,2013-02-20 20:01:00,
2013-02-20 15:11:00,22.0,12.0,-100.00,West,260,6.0,13.0,64,0.00,,,-99.99,,2013-02-20 20:11:00,
2013-02-20 15:21:00,22.0,12.0,-100.00,West,260,8.0,12.0,63,0.00,,,-99.99,,2013-02-20 20:21:00,
2013-02-20 15:31:00,23.0,13.0,-100.00,WSW,250,6.0,12.0,64,0.00,,,-99.99,,2013-02-20 20:31:00,
2013-02-20 15:41:00,22.0,13.0,-100.00,West,260,7.0,16.0,65,0.00,,,-99.99,,2013-02-20 20:41:00,
2013-02-20 15:51:00,23.0,13.0,-100.00,WNW,285,4.0,14.0,66,0.00,,,-99.99,,2013-02-20 20:51:00,
2013-02-20 16:01:00,22.0,13.0,-100.00,WSW,255,7.0,14.0,66,0.00,,,-99.99,,2013-02-20 21:01:00,
2013-02-20 16:11:00,23.0,13.0,-100.00,West,260,6.0,17.0,65,0.00,,,-99.99,,2013-02-20 21:11:00,
2013-02-20 16:21:00,23.0,13.0,-100.00,WNW,290,6.0,16.0,65,0.00,,,-99.99,,2013-02-20 21:21:00,
2013-02-20 16:31:00,23.0,13.0,-100.00,WSW,255,7.0,17.0,65,0.00,,,-99.99,,2013-02-20 21:31:00,
2013-02-20 16:42:00,23.0,13.0,-100.00,West,265,6.0,16.0,65,0.00,,,-99.99,,2013-02-20 21:42:00,
2013-02-20 16:51:00,23.0,14.0,-100.00,West,265,5.0,16.0,67,0.00,,,-99.99,,2013-02-20 21:51:00,
2013-02-20 17:02:00,23.0,14.0,-100.00,West,275,7.0,15.0,67,0.00,,,-99.99,,2013-02-20 22:02:00,
2013-02-20 17:11:00,23.0,13.0,-100.00,West,275,7.0,12.0,66,0.00,,,-99.99,,2013-02-20 22:11:00,
2013-02-20 17:21:00,23.0,13.0,-100.00,West,265,6.0,16.0,65,0.00,,,-99.99,,2013-02-20 22:21:00,
2013-02-20 17:31:00,23.0,14.0,-100.00,West,270,5.0,12.0,68,0.00,,,-99.99,,2013-02-20 22:31:00,
2013-02-20 17:42:00,23.0,14.0,-100.00,West,280,7.0,16.0,69,0.55,,,-99.99,,2013-02-20 22:42:00,
2013-02-20 17:51:00,23.0,14.0,-100.00,West,280,7.0,16.0,69,0.55,,,-99.99,,2013-02-20 22:51:00,
2013-02-20 18:01:00,23.0,14.0,-100.00,WNW,285,6.0,12.0,69,0.00,,,-99.99,,2013-02-20 23:01:00,
2013-02-20 18:12:00,22.0,15.0,-100.00,West,270,6.0,11.0,72,0.00,,,-99.99,,2013-02-20 23:12:00,
2013-02-20 18:22:00,22.0,16.0,-100.00,West,280,4.0,9.0,75,0.00,,,-99.99,,2013-02-20 23:22:00,
2013-02-20 18:32:00,22.0,16.0,-100.00,WNW,285,4.0,11.0,76,0.00,,,-99.99,,2013-02-20 23:32:00,
2013-02-20 18:42:00,22.0,16.0,-100.00,West,270,5.0,9.0,76,0.00,,,-99.99,,2013-02-20 23:42:00,
2013-02-20 18:52:00,22.0,16.0,-100.00,WSW,250,5.0,12.0,75,0.00,,,-99.99,,2013-02-20 23:52:00,
2013-02-20 19:03:00,22.0,14.0,-100.00,NW,310,6.0,13.0,70,0.00,,,-99.99,,2013-02-21 00:03:00,
2013-02-20 19:11:00,23.0,15.0,-100.00,WNW,285,4.0,9.0,70,0.00,,,-99.99,,2013-02-21 00:11:00,
2013-02-20 19:22:00,23.0,15.0,-100.00,West,270,4.0,11.0,72,0.00,,,-99.99,,2013-02-21 00:22:00,
2013-02-20 19:32:00,23.0,15.0,-100.00,West,270,6.0,12.0,71,0.00,,,-99.99,,2013-02-21 00:32:00,
2013-02-20 19:42:00,22.0,15.0,-100.00,West,265,6.0,11.0,70,0.00,,,-99.99,,2013-02-21 00:42:00,
2013-02-20 19:52:00,22.0,15.0,-100.00,West,280,7.0,12.0,71,0.00,,,-99.99,,2013-02-21 00:52:00,
2013-02-20 20:01:00,22.0,15.0,-100.00,West,270,5.0,12.0,71,0.00,,,-99.99,,2013-02-21 01:01:00,
2013-02-20 20:11:00,22.0,15.0,-100.00,WNW,285,6.0,11.0,72,0.00,,,-99.99,,2013-02-21 01:11:00,
2013-02-20 20:21:00,22.0,15.0,-100.00,West,275,3.0,10.0,73,0.00,,,-99.99,,2013-02-21 01:21:00,
2013-02-20 20:32:00,22.0,16.0,-100.00,West,270,7.0,11.0,75,0.55,,,-99.99,,2013-02-21 01:32:00,
2013-02-20 20:42:00,22.0,16.0,-100.00,WNW,290,6.0,9.0,76,0.55,,,-99.99,,2013-02-21 01:42:00,
2013-02-20 20:51:00,22.0,16.0,-100.00,WNW,290,3.0,9.0,75,0.00,,,-99.99,,2013-02-21 01:51:00,
2013-02-20 21:02:00,22.0,16.0,-100.00,West,275,6.0,12.0,76,0.00,,,-99.99,,2013-02-21 02:02:00,
2013-02-20 21:11:00,22.0,16.0,-100.00,West,275,4.0,12.0,77,0.00,,,-99.99,,2013-02-21 02:11:00,
2013-02-20 21:21:00,22.0,16.0,-100.00,NW,305,6.0,11.0,78,0.00,,,-99.99,,2013-02-21 02:21:00,
2013-02-20 21:32:00,22.0,16.0,-100.00,West,280,4.0,11.0,78,0.00,,,-99.99,,2013-02-21 02:32:00,
2013-02-20 21:42:00,22.0,16.0,-100.00,West,280,4.0,11.0,78,0.00,,,-99.99,,2013-02-21 02:42:00,
2013-02-20 21:51:00,22.0,16.0,-100.00,West,280,4.0,11.0,78,0.00,,,-99.99,,2013-02-21 02:51:00,
2013-02-20 22:02:00,22.0,16.0,-100.00,WNW,290,4.0,11.0,78,0.00,,,-99.99,,2013-02-21 03:02:00,
2013-02-20 22:12:00,22.0,17.0,-100.00,West,280,4.0,9.0,79,0.00,,,-99.99,,2013-02-21 03:12:00,
2013-02-20 22:21:00,22.0,17.0,-100.00,West,270,2.0,8.0,80,0.00,,,-99.99,,2013-02-21 03:21:00,
2013-02-20 22:32:00,22.0,17.0,-100.00,WNW,290,1.0,6.0,82,0.00,,,-99.99,,2013-02-21 03:32:00,
2013-02-20 22:42:00,22.0,17.0,-100.00,West,270,4.0,6.0,81,0.00,,,-99.99,,2013-02-21 03:42:00,
2013-02-20 22:51:00,22.0,17.0,-100.00,West,260,4.0,7.0,82,0.00,,,-99.99,,2013-02-21 03:51:00,
2013-02-20 23:01:00,22.0,17.0,-100.00,NW,315,2.0,6.0,81,0.00,,,-99.99,,2013-02-21 04:01:00,
2013-02-20 23:11:00,22.0,17.0,-100.00,West,260,4.0,7.0,81,0.00,,,-99.99,,2013-02-21 04:11:00,
2013-02-20 23:22:00,22.0,17.0,-100.00,West,275,3.0,9.0,81,0.00,,,-99.99,,2013-02-21 04:22:00,
2013-02-20 23:32:00,22.0,17.0,-100.00,West,265,2.0,6.0,81,0.00,,,-99.99,,2013-02-21 04:32:00,
2013-02-20 23:42:00,22.0,17.0,-100.00,NW,320,3.0,7.0,82,0.00,,,-99.99,,2013-02-21 04:42:00,
2013-02-20 23:52:00,22.0,17.0,-100.00,NW,320,3.0,9.0,82,0.00,,,-99.99,,2013-02-21 04:52:00,